Location: Unspecified
(41.1637°N, 24.2901°E)
Time: 11:49:36
(UTC+02:00)

ISS - Pass Details

Date: 15 May 2026
Orbit: 414 x 424 km, 51.6° (Epoch: 12 May)

Event Time Altitude Azimuth Distance (km) Brightness Sun altitude
Rises 20:09:44 0° 278° (W) 2,347 1.4 -6.6°
Reaches altitude 10° 20:12:16 10° 298° (WNW) 1,486 0.8 -7.0°
Maximum altitude 20:14:41 18° 344° (NNW) 1,084 -0.9 -7.4°
Drops below altitude 10° 20:17:06 10° 31° (NNE) 1,490 -0.9 -7.8°
Sets 20:19:39 0° 51° (NE) 2,355 -0.1 -8.2°
